Theta_e
296 295 295 294 294 294 294 293 293 293 292 292 291 291 290 290 290 290 289 289 289 288 288 288 288 288 288 287 287 287 287 287 287 287 287 287 287 287 287 287 287 287 288 288 288 288 288 288 288 288 288 288 288 288 288 288 288 288 288 287 287 288 288 289 289 290 290 290 290 290 291 291 291 291 291 291 291 291 291 291 291 292 292 292 292 293
295 295 294 294 293 293 293 293 292 292 291 291 290 290 290 290 289 289 289 288 288 288 288 287 287 287 287 287 287 286 286 285 286 286 287 287 287 287 287 287 287 287 287 287 287 287 287 287 287 287 287 287 287 287 287 287 287 287 287 287 287 288 288 289 289 289 289 290 290 290 290 290 291 291 291 291 291 291 291 291 291 292 292 292 293 293
294 294 293 293 293 293 293 292 292 291 290 290 290 289 289 289 289 288 288 288 288 288 287 287 287 287 287 287 287 286 285 285 285 286 286 286 286 286 286 287 287 287 287 287 287 287 287 287 287 287 287 287 287 287 287 287 287 287 287 287 287 288 288 289 289 289 289 289 290 290 290 290 290 291 291 291 291 291 291 291 292 292 292 293 293 293
294 293 293 292 292 292 292 292 291 290 289 289 289 289 289 289 288 288 288 288 287 287 287 287 287 287 287 287 286 286 285 285 285 286 286 286 286 286 286 286 286 286 287 286 286 287 286 287 287 287 287 287 286 286 286 286 286 287 287 287 287 288 288 288 289 289 289 289 289 290 290 290 290 290 291 291 291 291 291 291 291 292 292 293 293 293
293 293 292 292 292 292 291 291 290 289 289 288 288 289 289 288 288 288 287 287 287 287 287 287 287 286 286 286 286 286 285 285 285 286 286 286 286 286 286 286 286 286 286 286 286 286 286 286 286 286 286 286 286 286 286 286 286 287 287 287 288 288 288 289 289 289 289 289 289 290 290 290 290 290 290 290 291 291 291 291 291 292 292 293 293 293
293 292 292 291 291 291 291 290 290 289 288 288 288 288 288 288 288 287 287 287 287 287 287 286 286 286 286 286 286 285 285 285 285 285 285 285 285 285 285 285 285 286 286 286 286 286 286 286 286 286 286 286 286 286 286 286 286 286 287 287 288 288 288 289 289 289 289 289 289 289 290 290 290 290 290 290 290 291 291 291 291 292 292 292 292 293
292 292 291 291 290 290 290 290 289 288 288 288 288 288 288 288 287 287 287 287 287 287 286 286 286 286 286 286 285 285 285 285 285 285 285 285 285 285 285 285 285 285 285 285 285 285 285 285 285 285 286 285 285 285 285 286 286 286 287 287 288 288 288 289 289 289 289 289 289 289 289 290 290 290 290 290 290 290 291 291 291 291 292 292 292 292
291 291 290 290 289 289 289 289 289 288 288 288 288 288 288 287 287 287 287 287 287 286 286 286 286 286 286 285 285 285 285 285 285 285 285 285 285 285 285 285 285 285 285 285 285 285 285 285 285 285 285 285 285 285 285 285 286 286 287 287 288 288 288 288 288 289 289 289 289 289 289 289 289 289 290 290 290 290 290 291 291 291 291 292 292 292
290 290 289 289 289 289 289 289 288 288 288 287 288 287 287 287 287 286 286 286 286 286 286 286 286 286 285 285 285 285 284 284 284 285 285 285 285 285 285 285 285 284 284 285 285 285 284 285 285 285 285 284 284 284 285 285 286 286 287 287 287 288 288 288 288 288 289 289 289 289 289 289 289 289 290 290 290 290 290 291 291 291 291 291 291 291
289 289 288 288 288 288 288 288 288 288 287 287 287 287 287 286 286 286 286 286 286 286 286 286 286 285 285 285 285 285 284 284 284 284 284 284 284 284 284 284 284 284 284 284 284 284 284 284 284 284 284 283 283 283 284 285 286 286 287 287 287 287 287 288 288 288 288 288 288 289 289 289 289 289 289 290 290 290 290 290 290 290 290 291 291 291
289 288 288 288 288 288 287 287 287 287 287 287 287 286 286 286 286 286 286 286 286 286 285 285 285 285 285 285 285 285 284 284 284 284 284 284 284 284 284 284 284 284 284 284 284 284 284 284 284 284 283 283 283 283 284 285 286 286 286 287 287 287 287 287 288 288 288 288 288 288 289 289 289 289 289 290 290 290 290 290 290 290 290 290 290 290
288 288 288 288 288 287 287 287 287 287 287 287 286 286 286 286 286 286 286 286 286 285 285 285 285 285 285 285 285 285 284 284 284 284 284 284 284 284 284 284 284 284 284 284 284 284 284 284 284 284 283 283 283 284 284 285 285 286 286 287 287 287 287 287 288 288 288 288 288 288 288 288 289 289 289 289 289 290 290 290 289 290 290 290 290 290
288 288 288 288 287 287 287 287 287 287 287 286 286 286 286 286 286 285 285 285 285 285 285 285 285 285 285 285 285 285 284 284 284 284 284 284 284 284 284 284 284 284 284 284 284 284 284 284 284 284 283 283 283 284 284 285 285 286 286 286 287 287 287 287 287 287 287 288 288 288 288 288 288 289 289 289 289 289 289 289 289 289 290 290 290 290
287 287 287 287 287 287 286 286 286 287 286 286 286 285 285 285 285 285 285 285 285 285 285 285 285 285 285 285 285 284 284 284 284 284 284 284 284 284 284 285 284 284 284 284 284 284 284 284 284 284 283 283 283 284 284 285 285 286 286 286 286 287 287 287 287 287 287 287 288 288 288 288 288 288 289 289 289 289 289 289 289 289 289 290 290 290
287 287 287 287 287 286 286 286 286 286 286 286 285 285 285 285 285 285 285 285 285 285 284 285 285 285 285 285 285 284 284 284 284 284 284 284 284 284 284 285 285 284 284 284 284 284 284 284 284 284 283 283 283 284 284 284 285 285 286 286 286 286 287 287 287 287 287 287 287 288 288 288 288 288 288 288 288 288 289 289 289 289 289 289 289 289
287 287 287 287 286 286 286 286 286 286 286 286 285 285 285 285 285 285 285 285 285 284 284 284 285 285 285 285 284 284 284 284 284 284 284 284 284 284 284 285 285 284 284 284 284 284 284 284 284 284 284 283 283 283 284 284 285 285 285 286 286 286 286 286 286 286 287 287 287 287 287 288 288 288 288 288 288 288 288 288 288 289 289 289 289 289
286 286 286 286 286 286 286 285 286 286 286 285 285 285 285 285 285 285 285 285 285 284 284 285 285 285 285 285 284 284 284 283 283 283 283 284 284 284 284 284 285 284 284 284 284 284 284 284 284 284 284 283 283 283 284 284 285 285 285 285 286 286 286 286 286 286 286 286 287 287 287 287 288 288 287 288 288 288 288 288 288 288 288 288 289 289
286 286 286 286 286 286 285 285 286 286 286 285 285 286 285 285 285 285 285 285 285 285 285 284 285 285 285 285 284 284 283 283 283 283 283 283 284 284 284 284 284 284 284 284 284 284 284 284 284 284 284 283 283 283 284 284 284 285 285 285 286 286 286 286 286 286 286 286 286 287 287 287 287 287 287 287 287 287 288 288 288 288 288 288 288 289
286 285 285 285 285 285 285 286 286 286 286 286 285 285 285 285 285 285 285 285 285 285 284 285 285 285 285 284 284 284 283 283 283 283 283 283 284 284 284 284 284 284 284 284 284 284 284 284 284 284 283 283 283 284 284 284 284 285 285 285 285 285 285 285 286 286 286 286 286 286 286 287 287 287 287 287 287 287 287 287 288 288 288 288 288 288
285 285 285 285 285 285 286 286 286 286 285 285 285 285 285 285 284 284 284 284 284 284 284 284 284 284 284 284 284 284 283 283 283 283 283 283 284 284 284 284 284 284 284 284 284 284 284 284 284 284 283 283 283 284 284 284 284 284 285 285 285 285 285 285 285 285 286 286 286 286 286 287 287 287 287 287 287 287 287 287 287 287 287 288 288 288
285 285 285 285 285 286 287 287 286 286 285 285 285 285 284 284 284 284 284 284 284 284 284 284 284 284 284 284 284 284 283 283 283 283 283 283 284 284 284 284 284 284 284 284 284 284 284 284 284 284 283 284 284 284 284 284 284 284 284 285 285 285 285 285 285 285 285 285 286 286 286 286 286 287 287 287 287 287 287 287 287 287 287 287 288 288
285 285 285 285 286 286 287 287 286 285 285 285 285 285 284 284 284 284 284 284 284 284 284 284 284 284 284 284 284 284 284 283 283 282 282 283 283 284 284 284 284 284 284 284 284 284 284 284 284 284 284 284 284 284 284 284 284 284 284 284 285 285 285 285 285 285 285 285 285 286 286 286 286 286 286 287 287 287 287 287 287 287 287 287 287 288
285 285 285 286 287 287 287 286 285 285 285 285 285 284 284 284 284 284 284 284 284 284 283 283 283 284 284 284 284 284 284 283 282 282 282 283 283 283 283 283 284 284 284 284 284 284 284 283 284 284 284 284 284 284 284 284 284 284 284 284 284 284 284 284 285 285 285 285 285 285 286 286 286 286 286 286 286 286 286 286 287 287 287 287 287 287
285 286 286 286 286 286 286 285 285 285 285 285 284 284 283 283 283 283 283 283 283 283 283 283 283 284 284 284 284 284 283 283 282 282 282 283 283 283 283 283 283 284 284 284 283 283 283 283 283 284 284 284 284 284 284 284 284 284 284 284 284 284 284 284 284 284 285 285 285 285 285 286 286 286 286 286 286 286 286 286 286 286 287 287 287 287
286 286 286 285 285 285 285 285 285 284 284 284 283 283 283 283 283 283 283 283 283 283 283 283 283 284 284 283 283 283 283 283 283 282 282 282 282 283 283 283 283 283 283 283 283 283 283 283 284 284 284 285 284 284 284 284 284 284 284 284 284 284 284 284 284 284 284 285 285 285 285 285 285 286 286 286 286 286 286 286 286 286 286 286 286 286
285 285 285 284 285 285 285 285 284 284 283 283 282 282 282 282 282 283 283 283 282 282 282 283 283 283 283 283 283 283 283 283 283 282 282 282 282 282 283 283 283 283 283 283 283 283 283 284 284 285 285 285 284 284 284 284 284 284 284 284 284 284 284 284 284 284 284 284 285 285 285 285 285 285 286 286 286 286 286 286 286 286 286 286 286 286
284 284 284 284 284 284 284 283 283 283 283 282 281 281 281 282 282 282 282 282 281 282 282 282 283 283 283 283 283 283 283 283 283 282 281 281 282 282 283 283 282 282 282 282 282 283 283 284 284 285 285 285 284 284 284 284 284 284 284 284 284 284 284 284 284 284 284 284 284 285 285 285 285 285 285 285 285 285 285 285 285 286 286 286 285 285
283 283 283 283 283 283 283 283 283 282 282 282 281 281 281 281 281 282 281 281 281 281 282 282 282 282 282 282 282 282 283 283 283 282 281 281 281 282 282 282 282 282 282 282 282 283 283 284 285 285 285 285 284 284 284 284 284 284 284 284 284 284 284 284 284 284 284 284 284 285 285 285 285 285 285 285 285 285 285 285 285 285 285 285 285 285
283 283 283 283 282 282 282 282 282 282 282 282 282 281 281 281 281 281 281 280 280 281 281 281 282 282 282 282 282 282 283 283 282 281 281 281 281 282 282 282 281 281 281 281 282 282 284 284 285 285 285 285 284 284 284 283 283 283 284 284 284 284 284 284 284 284 284 284 284 284 285 285 285 285 285 285 285 285 285 285 285 285 285 285 285 285
282 282 283 283 282 282 282 282 282 282 282 282 282 281 281 281 281 281 280 280 280 280 281 281 281 281 281 281 282 282 283 283 282 281 280 280 281 281 281 281 281 281 281 281 281 282 283 284 284 285 284 284 283 283 283 283 283 283 284 284 284 284 284 283 284 284 284 284 284 284 284 285 285 285 285 285 285 285 285 285 285 285 285 285 285 284
283 283 283 283 283 283 282 282 282 282 282 282 282 282 281 281 281 280 280 280 280 280 280 280 280 280 281 281 282 282 283 283 282 281 280 280 280 280 280 280 280 280 280 280 280 281 282 283 283 283 283 283 283 283 283 283 283 283 284 284 284 284 283 283 283 284 284 284 284 284 284 284 284 284 284 284 284 284 284 284 284 284 284 284 284 284
283 283 283 283 283 283 283 283 283 283 282 282 282 282 282 281 281 281 280 280 280 280 280 280 280 280 280 280 281 282 282 282 281 281 280 280 280 280 280 280 280 280 280 279 279 280 281 282 282 282 282 282 282 282 282 283 283 284 284 284 284 283 283 283 283 283 284 284 284 284 284 284 284 284 284 284 284 284 284 284 284 284 284 284 284 284
283 283 283 283 283 283 283 283 283 282 282 282 282 282 282 281 281 281 280 280 280 280 279 279 280 280 280 280 280 281 281 281 281 280 280 279 279 279 279 279 279 279 279 279 279 279 280 280 281 281 281 281 282 282 282 283 283 284 284 284 283 283 283 283 283 283 283 284 284 284 284 284 284 284 284 284 283 283 283 283 283 284 284 284 284 284
282 282 282 282 283 283 283 283 282 282 282 282 282 282 282 281 281 281 280 280 280 279 279 279 279 279 279 280 280 280 280 280 280 280 279 279 279 279 279 279 279 279 279 279 279 279 279 280 280 280 281 281 281 282 282 283 283 284 283 283 283 283 283 283 283 283 283 283 284 284 284 284 284 283 283 283 283 283 283 283 283 283 283 284 284 284
282 282 282 282 282 282 282 282 282 282 282 282 282 281 281 281 281 281 280 280 280 280 279 279 279 279 279 279 279 279 279 280 279 279 279 279 279 278 278 278 278 278 278 278 279 279 279 279 279 280 280 281 281 282 282 283 283 283 283 283 283 283 283 283 283 283 283 283 283 283 283 283 283 283 283 283 283 283 283 283 283 283 283 283 284 284
282 282 282 282 282 282 282 281 281 281 281 281 281 281 281 281 281 281 280 280 280 280 279 279 279 278 278 278 278 278 278 279 278 278 279 278 278 278 278 278 278 278 278 278 278 278 278 279 279 279 280 280 281 282 283 283 283 282 282 282 283 283 283 283 283 283 283 283 283 283 283 283 283 283 283 282 282 282 282 282 282 282 282 283 283 283
282 282 281 281 281 281 281 281 281 281 281 281 281 281 281 281 281 280 280 280 280 279 279 279 279 278 278 278 278 278 278 278 278 278 278 278 278 277 277 277 277 277 277 278 278 278 278 278 278 279 279 280 281 282 282 282 282 282 282 282 282 282 282 282 283 283 283 283 283 283 283 283 283 282 282 282 282 282 282 282 282 282 282 282 283 283
281 281 281 281 281 280 280 280 280 281 280 280 280 280 281 281 280 280 280 280 279 279 279 279 279 279 278 278 278 277 277 278 278 278 278 278 277 277 277 277 277 277 277 277 277 277 277 278 278 279 279 280 280 281 281 281 281 281 282 282 282 282 282 282 282 282 283 283 283 283 283 282 282 282 282 282 281 281 281 281 281 281 282 282 282 282
281 281 280 280 280 280 280 280 280 280 280 280 280 280 281 281 280 280 280 280 280 279 279 279 279 278 278 278 278 278 278 278 278 278 278 277 277 276 276 276 276 277 277 277 277 277 277 278 278 278 279 279 279 280 280 280 281 281 281 281 282 282 282 282 282 282 282 282 282 282 282 282 282 282 281 281 281 281 281 281 281 281 281 282 282 282
280 280 280 280 280 280 280 280 280 280 280 280 280 280 281 281 280 280 280 280 279 279 279 278 278 278 278 278 278 278 278 278 278 278 277 277 277 277 276 276 276 276 277 277 277 277 277 278 278 278 278 279 279 279 279 280 280 281 281 281 282 282 282 282 282 282 282 282 282 282 282 282 281 281 281 281 281 281 281 281 281 281 281 281 282 282
280 280 280 280 280 279 280 280 280 280 280 280 280 281 281 280 280 280 280 280 279 279 278 278 278 278 278 279 279 279 279 279 278 278 278 277 277 277 276 276 276 276 277 277 277 277 278 278 278 278 278 278 279 279 279 280 280 281 281 281 282 282 282 282 282 282 282 282 282 281 281 281 281 281 281 280 280 280 281 281 281 281 281 281 282 282
280 280 280 279 279 279 279 280 280 280 280 280 280 281 281 280 280 280 280 279 279 279 278 278 278 278 278 279 279 279 279 279 278 278 278 277 277 277 277 277 277 277 277 277 278 278 278 278 278 278 279 279 279 279 280 280 280 281 281 281 282 282 282 282 282 282 282 281 281 281 281 281 280 280 280 280 280 280 280 281 281 281 281 281 282 282
279 279 279 279 279 279 280 280 280 280 280 280 280 281 280 280 280 280 279 279 279 278 278 278 278 278 278 279 279 279 279 279 279 278 278 278 277 277 277 277 277 277 277 278 278 278 278 279 279 279 279 279 280 280 280 280 281 281 281 282 282 282 282 282 282 281 281 281 281 281 280 280 280 280 280 280 280 280 280 280 281 281 281 281 281 281
279 279 279 279 279 279 280 280 280 280 280 280 280 280 280 280 280 279 279 279 278 278 278 278 278 278 279 279 279 279 279 279 279 278 278 278 278 278 277 277 277 277 277 278 278 278 278 279 279 279 279 280 280 280 280 281 281 281 282 282 282 282 282 281 281 281 281 281 280 280 280 280 279 279 279 280 280 280 280 280 280 281 281 281 281 281
279 279 279 279 279 280 280 280 280 280 280 280 280 280 280 280 279 279 279 278 278 278 278 278 278 278 279 279 279 279 279 279 278 278 278 278 277 277 277 277 277 277 277 277 278 278 278 278 279 279 279 279 280 280 280 281 281 282 282 282 282 281 281 281 281 280 280 280 280 280 279 279 279 279 279 279 280 280 280 280 280 280 280 281 281 281
279 279 279 279 279 280 280 280 280 280 280 280 280 280 280 280 279 279 279 278 278 278 278 278 278 278 279 279 279 279 279 279 278 278 278 278 277 277 277 277 277 277 277 277 277 278 278 278 278 279 279 279 280 280 281 281 281 282 282 281 281 281 281 280 280 280 280 279 279 279 279 279 279 279 279 279 279 280 280 280 280 280 280 281 281 281
279 279 279 279 279 280 280 280 280 280 280 280 280 280 280 279 279 279 278 278 278 278 278 278 278 278 278 279 279 279 279 278 278 278 278 278 278 277 277 277 277 277 277 277 277 277 278 278 278 279 279 279 280 280 281 281 281 281 281 281 281 280 280 280 280 280 279 279 279 279 279 279 279 279 279 279 279 279 279 280 280 280 280 280 281 281
279 279 279 279 279 279 280 279 279 279 280 280 280 280 279 279 279 279 278 278 278 278 278 278 278 278 279 279 279 278 278 278 278 278 278 278 278 277 277 277 277 277 277 277 277 277 278 278 278 279 279 279 280 280 281 281 281 281 281 280 280 280 280 280 279 279 279 279 279 279 279 279 279 279 279 279 279 279 279 279 279 280 280 280 281 281
279 279 279 279 279 279 279 279 279 279 279 279 279 279 279 279 279 278 278 278 278 278 278 278 278 278 279 279 279 278 278 278 278 278 278 278 278 277 277 277 277 277 277 277 277 278 278 279 279 279 280 280 280 281 281 281 281 280 280 280 280 280 279 279 279 279 279 279 278 278 278 278 278 278 279 279 279 279 279 279 279 280 280 280 280 280
278 278 278 278 279 279 279 279 279 279 279 279 279 279 279 279 279 278 278 278 278 278 278 278 278 278 279 279 279 278 278 278 278 278 278 278 278 277 277 277 277 277 277 277 277 278 279 279 280 280 280 281 281 281 281 280 280 280 280 280 280 279 279 279 279 279 279 278 278 278 278 278 278 278 278 279 279 279 279 279 279 279 280 280 280 280
278 278 278 278 278 278 279 279 279 279 279 279 279 279 279 279 279 278 278 278 278 278 278 278 278 278 278 279 278 278 278 278 278 278 278 278 278 278 277 277 277 277 277 277 277 278 279 279 280 280 281 281 281 280 280 280 279 279 279 279 279 279 279 279 278 278 278 278 278 278 278 278 278 278 278 279 279 279 279 279 279 279 279 280 280 280
Wind_Speed
4 4 5 6 7 7 6 7 9 10 11 11 12 12 13 13 13 12 12 13 13 13 13 12 12 12 12 12 13 14 16 17 18 18 18 17 17 17 17 17 17 16 16 16 17 17 17 17 18 18 18 18 18 18 18 18 18 18 18 18 18 18 19 19 19 20 20 21 21 21 21 22 22 22 23 23 23 23 23 24 24 24 24 24 25 25
4 4 5 6 7 7 6 7 9 10 11 12 12 13 13 14 13 13 13 13 13 13 13 13 12 12 12 12 13 15 17 18 18 18 18 17 17 17 17 17 16 16 16 16 17 17 17 17 17 17 17 17 17 17 17 18 18 18 17 17 18 18 19 19 19 20 20 21 21 21 22 22 22 23 23 23 23 24 24 24 24 24 25 25 25 25
5 5 5 6 6 6 6 8 9 10 11 12 12 12 13 13 13 13 13 13 13 13 13 12 12 12 12 12 13 16 18 19 19 18 17 17 17 17 17 17 17 16 16 16 17 17 17 17 17 17 17 17 17 17 17 17 17 17 17 17 18 18 19 19 20 20 20 21 21 22 22 22 22 23 23 23 24 24 24 24 25 25 25 25 26 26
4 5 6 6 6 6 7 8 9 10 10 11 11 11 12 12 12 12 13 14 14 13 13 12 12 12 12 12 13 16 18 19 19 18 17 17 17 17 17 17 17 17 16 16 17 17 17 16 16 16 16 16 16 17 17 17 17 17 17 17 18 18 19 19 20 20 21 21 22 22 22 23 23 23 23 24 24 24 24 24 25 25 25 26 26 26
4 5 6 6 6 6 7 7 8 9 10 11 11 11 11 11 11 12 13 13 14 13 13 13 12 12 12 12 13 16 18 18 18 18 17 17 17 17 17 17 17 17 17 17 17 17 16 16 16 16 16 16 16 16 16 16 17 17 17 18 18 19 20 20 21 21 21 22 22 22 23 23 23 23 24 24 24 24 24 24 25 25 26 26 26 26
4 5 5 6 6 6 6 7 8 9 10 10 10 10 10 11 12 12 13 13 13 13 13 13 13 13 12 12 13 15 17 17 17 17 17 17 17 17 17 17 17 17 17 17 17 16 16 16 15 16 16 16 16 16 16 16 17 17 17 18 19 20 20 21 21 21 22 22 22 23 23 23 23 24 24 24 24 24 24 24 25 25 26 26 26 26
4 5 5 5 6 6 6 6 7 9 10 10 10 10 10 11 12 13 13 13 12 12 12 13 13 13 13 13 14 15 16 16 17 17 17 17 17 17 18 18 17 17 17 17 17 16 16 15 15 16 16 16 16 16 16 16 17 17 18 19 20 20 21 21 21 21 22 22 22 23 23 23 23 24 24 24 24 24 24 25 25 25 26 26 26 27
5 5 5 6 6 6 5 6 7 9 10 10 10 10 10 11 12 13 13 13 12 12 12 12 12 13 13 14 15 15 15 16 16 16 17 17 17 18 18 18 18 17 17 17 16 16 15 15 15 16 16 16 16 16 16 16 17 17 18 19 20 21 21 21 22 22 22 22 23 23 23 23 24 24 24 24 24 24 24 25 25 25 26 26 27 27
5 5 5 6 6 6 6 6 7 8 10 10 10 10 11 12 12 13 13 12 12 12 12 12 12 13 13 14 15 16 16 16 16 16 17 17 17 17 18 18 17 17 17 17 16 16 15 15 15 16 16 16 16 15 15 16 17 18 19 20 21 21 21 22 22 22 23 23 23 23 24 24 24 24 24 24 24 24 25 25 25 26 26 26 27 27
4 5 5 5 5 5 6 6 7 8 9 9 9 9 10 12 12 12 12 12 12 12 13 13 13 13 13 14 15 16 17 17 17 17 17 17 18 17 17 17 17 17 17 17 16 15 15 15 16 16 16 16 15 15 15 16 17 18 19 20 21 21 22 22 22 23 23 23 23 24 24 24 24 24 24 24 24 24 25 25 25 26 26 26 27 27
4 4 4 4 5 5 5 6 6 7 9 9 8 8 9 11 12 12 12 12 12 13 13 14 14 14 14 14 15 16 17 17 17 17 17 18 18 17 17 16 16 16 16 16 15 15 14 15 15 16 16 16 15 15 16 16 17 18 19 20 21 22 22 22 23 23 23 23 23 23 24 24 24 24 24 24 24 25 25 25 25 26 26 26 26 26
4 4 4 4 4 5 6 6 6 7 8 9 9 9 10 11 11 12 12 12 13 13 14 14 14 13 13 14 14 16 17 17 18 18 17 17 17 17 16 16 16 16 16 15 14 14 14 15 15 15 15 15 15 15 16 17 18 19 20 20 21 22 22 22 23 23 23 23 23 23 23 23 24 24 24 24 24 25 25 25 25 25 26 26 26 26
3 3 3 4 4 5 6 7 7 8 9 9 10 10 10 11 11 11 11 11 12 13 14 14 14 14 13 12 13 15 17 18 18 18 17 17 16 16 15 15 15 16 15 15 14 14 14 15 15 14 14 14 15 15 16 17 18 19 20 20 21 22 22 22 22 23 23 23 23 23 23 23 24 24 24 24 24 24 25 25 25 25 25 26 26 25
4 4 4 4 5 5 6 7 7 8 8 9 9 10 10 11 11 11 10 10 11 12 13 14 14 14 13 12 12 14 16 17 18 18 17 17 16 16 15 15 15 15 15 15 14 14 14 14 14 14 14 14 14 15 16 17 18 19 20 21 21 21 22 22 22 22 22 22 23 23 23 23 24 24 24 24 24 24 24 25 25 25 25 25 25 25
4 4 4 4 5 5 6 6 7 7 8 9 9 10 10 11 11 10 10 10 11 12 12 13 14 14 13 12 13 14 16 17 18 18 18 17 16 15 15 15 15 15 15 15 15 14 14 14 13 13 13 14 15 16 17 18 19 20 20 21 21 22 22 22 22 22 22 22 22 23 23 23 23 24 24 24 24 24 24 24 24 25 25 25 25 25
4 4 4 4 5 5 5 6 6 7 8 9 10 10 10 10 10 10 9 10 11 11 12 13 13 13 12 12 13 15 17 17 18 18 18 18 17 15 15 15 15 16 15 15 15 15 14 14 13 13 14 15 16 17 18 18 19 20 20 21 21 22 22 22 22 22 22 22 22 22 23 23 23 24 24 24 24 24 24 24 24 24 24 24 24 24
4 4 4 4 5 5 5 5 6 6 8 9 10 10 10 10 9 9 9 9 10 10 11 11 10 10 10 13 14 16 17 17 17 18 18 17 17 16 15 14 15 15 16 15 15 15 14 14 14 14 14 16 17 18 18 18 19 20 20 21 21 22 22 22 22 22 22 22 22 23 23 23 23 23 24 24 24 24 24 24 24 24 24 24 24 24
4 4 4 4 5 5 5 5 5 6 8 9 10 10 9 9 9 9 9 9 10 10 10 11 10 9 9 12 14 16 18 17 17 17 17 17 17 16 15 14 15 15 15 15 15 15 14 14 14 15 16 17 18 18 18 18 19 20 20 21 21 22 22 22 22 22 22 22 22 23 23 23 23 23 23 23 24 24 24 24 24 24 24 24 24 24
4 4 4 4 4 4 5 5 5 6 7 9 10 10 9 9 9 9 9 9 9 10 10 10 11 11 11 13 15 17 17 17 17 17 16 17 17 16 15 15 15 15 15 15 15 15 15 15 15 16 17 17 17 17 17 18 19 20 20 21 21 21 22 22 22 22 22 22 22 22 23 23 23 23 23 23 23 24 24 24 24 24 24 24 24 24
4 4 4 4 4 4 5 5 5 6 7 8 9 9 9 9 9 9 9 9 10 10 11 11 11 12 13 14 16 17 17 16 16 16 16 17 17 16 15 15 15 16 16 15 15 15 15 16 16 17 17 17 16 16 17 18 19 19 20 20 21 21 21 21 21 21 21 22 22 22 23 23 23 23 23 23 23 23 23 24 24 24 24 24 24 24
4 4 4 4 4 5 5 5 5 5 6 7 8 8 8 9 9 10 10 10 11 11 12 12 12 13 14 15 16 16 15 14 14 15 15 16 16 16 16 15 15 16 16 16 16 16 16 16 16 16 16 16 16 17 18 19 19 19 20 20 21 21 21 21 21 21 21 21 22 22 23 23 23 23 23 23 23 23 23 24 24 24 24 24 24 24
3 3 3 4 6 6 5 4 4 5 7 8 8 8 8 8 9 9 10 10 11 12 12 12 13 14 15 15 15 15 13 11 11 13 14 15 16 16 16 16 16 16 16 17 17 17 17 17 16 16 16 16 16 17 18 19 19 19 20 20 21 21 21 21 21 21 21 22 22 22 22 23 23 23 23 23 23 23 23 23 23 24 24 24 25 25
3 3 3 5 7 7 5 4 5 6 7 8 8 8 8 8 8 8 9 10 10 11 13 14 14 15 14 14 14 13 11 9 10 12 13 13 14 16 17 17 16 16 17 17 18 18 18 18 17 16 16 16 16 17 18 19 19 19 20 20 21 21 21 21 21 21 21 22 22 22 23 23 23 23 23 23 23 23 23 23 24 24 24 25 25 25
3 4 4 6 8 10 8 8 7 8 8 8 8 8 8 8 8 8 8 9 10 12 13 14 14 14 13 13 13 12 10 9 10 11 12 12 14 16 17 17 17 17 17 18 19 19 19 18 18 16 15 15 15 16 18 19 19 20 20 21 21 21 21 21 21 21 21 22 22 23 23 23 23 22 23 23 23 23 23 23 24 24 24 25 25 24
3 4 4 6 8 10 10 10 9 9 9 8 8 9 9 9 8 8 8 9 10 12 13 13 13 13 13 13 13 12 11 9 9 10 11 12 15 17 16 16 16 17 18 19 19 19 19 18 18 16 14 14 14 16 18 19 20 20 21 21 21 21 21 21 21 22 22 22 23 23 23 23 22 22 22 23 23 23 23 23 24 24 25 25 24 23
4 4 5 6 7 8 9 10 10 10 9 9 10 10 11 10 9 8 8 9 11 12 13 13 12 13 13 13 13 13 12 10 9 9 10 12 15 16 16 16 16 17 19 20 20 19 18 18 17 15 14 13 14 16 17 19 20 21 21 21 21 21 22 22 22 22 22 23 23 23 23 22 22 22 22 22 23 23 23 23 24 24 25 24 23 21
5 6 6 6 6 7 7 8 9 9 9 10 12 13 12 11 10 9 9 10 11 12 12 12 12 12 13 13 13 13 12 10 9 9 11 13 14 15 15 16 17 18 19 20 20 19 18 18 16 14 13 12 13 16 17 19 20 21 21 21 21 21 22 22 22 22 23 23 23 23 22 22 22 22 22 22 22 22 23 23 24 24 24 23 21 19
5 6 6 6 5 5 5 6 7 8 9 11 13 14 14 11 10 9 9 11 11 11 11 11 11 11 12 13 14 14 12 9 8 9 12 13 12 13 15 16 16 17 18 20 20 20 17 15 14 12 12 12 14 16 18 19 20 20 20 20 20 21 22 22 22 23 23 24 23 23 22 22 22 22 22 22 22 22 22 23 24 24 23 21 20 18
4 4 4 4 4 4 5 5 6 8 10 11 13 13 13 11 9 8 9 10 11 11 11 11 12 12 12 13 14 13 11 8 8 11 14 13 12 13 15 15 16 17 18 19 20 19 16 13 11 10 11 13 15 17 19 19 20 19 19 19 20 21 21 22 23 24 24 24 23 23 22 22 22 22 22 22 22 22 22 23 23 23 22 20 19 18
3 3 3 4 4 4 5 5 7 8 10 11 12 12 12 11 9 8 9 10 10 10 10 11 12 12 13 13 13 11 8 8 10 12 14 13 12 13 15 15 15 15 16 16 15 13 13 13 12 11 12 15 17 18 19 19 19 18 18 19 20 21 21 23 24 24 24 24 23 23 22 22 22 22 22 22 22 22 22 22 23 22 21 20 19 18
3 3 3 4 4 5 6 6 7 8 9 10 11 11 11 10 10 9 9 10 9 9 10 11 11 12 12 11 8 6 6 9 11 13 14 13 12 13 15 15 15 15 14 13 9 6 9 12 14 15 15 17 18 18 18 18 18 17 18 19 20 20 21 23 24 24 24 23 23 23 22 22 22 22 22 22 22 22 22 22 22 22 21 20 19 18
3 3 3 4 4 5 6 7 7 8 9 9 9 9 9 10 10 10 10 10 10 10 10 11 11 11 11 10 8 7 8 10 12 14 14 13 12 13 14 14 14 15 13 12 9 7 6 8 14 19 20 19 19 19 18 18 17 17 17 18 19 21 22 22 23 23 23 22 22 22 22 22 22 22 22 22 22 22 22 22 23 22 22 20 19 18
3 3 4 4 5 5 5 6 7 8 8 9 9 9 9 10 10 11 11 11 10 10 10 11 11 11 11 11 11 11 11 11 12 13 14 13 12 13 13 14 14 15 14 13 11 10 9 11 16 20 21 20 20 19 18 17 17 16 17 18 19 21 22 22 22 21 22 22 22 22 21 21 21 22 22 22 22 22 23 23 23 22 22 21 20 19
4 4 5 5 5 6 6 6 7 8 8 9 9 9 9 10 11 12 12 12 11 11 10 10 10 11 11 11 11 12 12 11 11 13 14 13 12 12 14 14 14 14 15 14 13 13 13 15 17 18 19 20 20 19 17 17 16 16 17 18 19 20 21 21 21 21 21 21 21 21 21 21 21 21 22 22 22 23 24 24 23 22 21 20 20 19
4 5 5 6 6 6 7 7 8 8 8 9 9 10 10 11 12 13 13 13 13 12 11 11 10 10 10 11 11 12 12 12 13 14 14 13 12 12 13 13 13 13 14 14 14 13 13 15 17 17 18 19 20 18 17 16 16 17 18 18 19 19 20 20 21 21 21 21 21 21 21 21 21 21 22 22 23 24 24 24 23 22 21 20 19 19
5 6 6 7 7 7 7 8 8 9 9 9 10 10 11 12 13 14 14 15 14 14 13 12 11 11 11 11 11 12 14 15 15 15 14 13 13 12 12 12 13 13 13 14 14 14 14 15 17 18 18 17 17 17 18 18 18 19 19 19 19 20 20 20 20 20 21 21 21 21 21 21 21 22 22 22 23 24 24 24 23 22 20 19 19 18
5 6 6 7 7 7 8 8 9 9 10 10 11 11 12 13 14 15 16 16 16 15 14 13 13 12 12 12 12 13 14 14 14 14 14 13 12 12 11 12 13 13 13 13 14 14 15 15 16 17 16 15 15 16 18 20 21 20 20 20 20 20 20 20 19 20 20 21 21 21 21 22 22 22 22 23 23 24 23 23 22 21 20 20 19 18
6 6 6 7 7 7 8 9 9 10 10 11 11 12 13 14 15 17 17 17 16 15 14 14 13 14 14 13 13 13 13 13 13 13 13 12 12 12 12 12 13 13 13 13 13 14 14 14 13 13 14 16 17 18 19 20 21 21 21 21 21 20 19 19 19 20 20 21 21 22 22 22 21 22 22 22 22 23 22 22 22 21 21 20 19 18
6 6 6 7 7 8 8 9 9 10 11 11 12 12 13 14 15 16 16 16 14 14 13 13 14 14 14 14 13 12 11 11 12 12 12 13 13 13 13 13 14 14 14 14 14 14 14 14 13 13 14 16 18 20 20 20 20 21 22 23 22 20 19 19 20 20 20 21 21 22 22 22 21 21 22 22 22 22 22 22 22 22 21 20 20 18
6 6 6 7 7 8 8 9 10 11 12 12 12 12 12 13 15 16 16 15 13 13 13 14 14 13 13 12 11 10 10 11 12 13 14 14 15 15 14 14 15 15 15 15 14 14 14 14 15 16 17 17 18 19 20 21 20 21 22 22 21 20 21 21 20 20 20 20 21 21 22 22 22 22 22 22 22 21 21 21 21 21 20 20 19 19
6 6 7 7 8 8 9 9 10 11 12 12 11 11 12 13 14 15 16 15 15 15 15 15 15 14 12 11 9 9 9 10 12 13 14 14 15 15 15 15 16 16 16 16 15 15 15 15 16 17 17 18 19 20 20 20 20 21 21 21 21 22 23 22 20 19 20 20 21 21 22 22 22 22 22 22 22 21 20 20 20 20 20 19 18 18
6 6 7 8 8 9 9 10 11 11 11 11 10 10 11 13 14 15 16 15 16 16 16 16 15 14 13 11 9 8 8 9 11 12 13 14 14 15 15 15 15 16 16 17 16 16 16 15 16 17 17 18 18 18 19 20 21 20 20 20 22 23 23 22 20 19 20 21 21 21 22 22 22 22 23 22 22 21 20 20 19 19 19 18 17 16
6 7 7 8 9 9 10 10 10 10 10 10 10 10 11 12 14 15 15 15 15 15 16 16 15 14 12 12 11 10 10 10 10 11 12 13 13 13 13 14 14 15 16 16 17 17 17 16 16 16 17 17 17 18 19 20 21 20 19 20 21 21 20 21 22 22 22 22 21 21 21 22 23 23 24 23 22 21 19 19 18 18 18 17 16 16
6 7 8 8 8 9 9 9 9 10 10 10 10 10 11 12 13 14 14 14 14 15 15 15 15 13 12 12 12 12 12 11 11 11 12 12 13 13 14 14 15 15 15 15 16 17 18 17 17 16 16 16 17 17 18 19 20 20 20 20 20 20 19 21 23 24 23 22 22 21 22 23 24 24 24 23 21 19 18 18 18 18 17 17 16 16
7 7 8 8 8 8 9 9 10 10 10 10 10 11 11 12 13 13 14 14 14 14 14 14 14 13 12 13 13 13 13 13 13 13 13 13 13 14 14 14 15 15 15 15 16 17 17 18 18 18 17 16 16 17 17 18 19 20 20 21 21 21 21 22 22 22 22 22 22 22 23 24 25 25 23 22 20 19 18 18 18 18 18 17 16 16
7 7 8 8 8 8 9 9 10 10 10 10 10 11 11 12 13 13 14 14 14 14 14 13 13 12 12 13 14 14 15 15 15 15 15 15 15 15 15 15 15 15 16 16 17 17 18 18 19 19 18 17 17 16 16 16 18 19 20 21 21 21 22 21 21 21 21 22 23 23 24 25 25 23 22 22 21 20 19 18 18 18 18 17 16 16
7 7 8 8 8 8 9 9 10 10 10 10 11 11 11 12 13 13 14 14 14 13 13 13 12 12 12 13 14 14 15 16 16 16 17 16 17 17 16 16 16 16 16 17 17 18 18 19 20 19 18 17 17 16 16 16 17 18 20 21 21 21 21 21 21 21 22 22 23 24 25 25 24 23 23 22 22 20 19 18 18 18 18 17 16 16
7 7 8 8 8 8 9 9 10 10 11 11 11 11 11 12 13 13 14 14 14 13 13 13 13 12 12 13 13 14 15 15 16 16 17 17 17 17 18 18 18 18 18 17 17 17 17 18 19 19 18 17 16 16 16 17 17 18 20 20 21 21 21 21 22 22 22 22 23 24 24 23 23 22 23 23 22 21 20 20 19 18 17 16 16 16
6 7 7 8 8 9 9 10 10 11 11 11 12 12 12 12 13 13 13 13 13 13 13 13 13 13 13 13 14 15 15 15 15 16 16 17 17 18 19 19 19 19 19 18 17 16 15 15 15 15 15 15 15 15 16 17 18 19 19 19 19 20 21 21 22 22 22 22 23 23 23 22 22 22 22 22 22 22 22 21 20 18 17 17 16 17
6 6 7 7 8 8 9 9 10 11 11 12 12 12 12 12 13 13 13 13 13 13 13 13 13 13 13 14 15 15 15 15 15 15 16 16 17 18 19 19 20 20 20 19 18 17 15 14 13 11 10 10 11 12 15 17 19 19 19 19 19 19 20 21 22 22 22 23 23 23 22 22 21 21 20 20 21 22 22 21 20 19 18 18 18 18
6 6 7 7 8 8 9 9 10 10 11 12 12 12 12 12 13 13 13 13 13 13 13 13 13 13 13 14 15 15 15 15 15 15 16 16 17 17 18 19 19 20 19 19 18 18 16 15 13 12 10 7 7 10 13 16 18 19 19 19 19 19 20 21 22 22 22 23 23 23 22 22 21 20 19 19 20 21 21 21 21 21 20 20 20 20
Wind_Direction
334 330 333 341 339 334 333 344 349 348 344 342 339 338 337 337 337 337 338 340 340 340 340 340 340 341 342 344 347 350 352 352 352 350 349 348 347 346 345 343 342 341 340 339 338 337 336 336 335 335 335 335 335 335 336 337 337 337 338 337 337 336 335 335 336 336 336 335 335 334 333 333 332 332 331 331 330 330 329 328 327 326 325 325 324 323
334 330 334 341 341 337 335 345 352 351 346 342 339 338 338 338 339 339 340 341 341 341 341 341 340 340 341 341 343 346 349 351 351 349 347 346 346 345 344 342 341 340 339 338 337 337 336 336 336 336 336 336 337 337 338 338 339 339 338 338 337 336 336 337 337 336 336 335 334 333 333 332 332 331 330 330 330 329 328 327 327 326 326 325 324 323
335 336 339 341 342 341 341 347 351 351 347 341 338 337 338 339 341 341 341 341 341 341 341 341 340 339 339 339 340 342 345 347 348 347 345 344 344 344 343 342 341 340 339 338 338 337 337 337 337 337 337 338 338 339 339 339 339 339 339 338 337 337 337 337 337 336 335 334 333 332 332 331 331 330 329 329 328 328 327 327 326 325 325 324 324 323
341 342 342 340 340 342 344 348 350 351 347 340 337 338 341 342 343 342 342 340 340 340 340 340 340 339 338 337 337 338 340 343 343 343 342 342 343 343 343 342 342 341 340 339 339 339 338 338 338 339 339 339 339 339 339 339 339 339 338 337 337 337 337 337 336 335 334 333 332 332 331 330 330 329 329 328 328 327 327 327 326 325 325 325 325 324
350 350 345 341 339 339 342 346 350 350 346 342 340 341 343 344 343 342 342 341 340 339 339 339 340 339 337 335 334 335 337 338 339 339 339 340 341 341 342 342 341 341 340 340 340 340 340 340 340 340 340 339 339 339 339 339 339 338 338 337 336 336 336 336 335 334 333 332 332 331 330 330 329 329 329 328 328 327 327 327 326 326 325 325 325 325
353 353 348 345 340 337 336 343 350 352 348 344 342 343 345 345 343 342 342 341 340 338 337 337 338 337 336 335 333 333 334 336 337 337 337 338 339 340 341 341 340 340 340 340 340 340 340 340 340 340 340 339 339 339 339 339 339 338 337 337 336 335 334 334 334 333 332 331 331 330 329 329 329 328 328 328 328 327 327 327 326 326 326 325 325 325
348 353 353 349 344 337 335 343 352 354 351 346 343 344 346 345 344 342 341 340 339 337 335 334 334 335 335 335 335 335 335 336 336 336 337 337 338 339 339 340 340 339 339 339 339 339 339 339 340 339 339 339 339 339 339 339 338 338 337 336 335 334 334 333 333 332 331 331 330 329 329 329 328 328 328 328 327 327 327 326 326 326 326 325 325 325
347 352 356 354 348 341 339 345 354 357 354 348 345 344 346 347 345 342 339 339 339 338 336 334 333 333 333 334 336 337 337 337 337 337 336 336 337 337 338 338 339 338 338 338 338 338 338 338 338 338 338 338 338 338 339 338 338 337 336 335 334 334 333 332 332 331 331 330 329 329 329 328 328 328 328 328 327 327 327 326 326 326 326 325 325 325
354 353 355 356 350 344 341 344 352 356 355 351 348 347 346 346 345 342 340 340 340 339 337 335 332 331 331 333 335 337 337 337 336 336 335 335 334 335 335 336 337 337 337 337 336 336 336 336 337 337 337 336 337 338 338 338 337 336 335 334 334 333 333 332 331 331 330 330 329 329 328 328 328 328 328 328 327 327 326 326 326 326 326 325 325 325
4 357 353 353 353 350 345 342 346 352 356 353 351 350 348 347 344 342 341 341 341 340 338 335 333 331 330 331 334 335 336 336 335 335 334 334 333 333 333 333 334 334 335 335 334 333 334 334 335 335 336 337 338 338 337 336 336 335 334 334 333 333 332 332 331 331 330 330 329 329 328 328 328 328 328 328 327 327 326 326 326 326 326 326 325 325
6 1 354 348 351 354 353 346 345 348 353 354 354 354 354 350 346 342 339 339 339 339 338 335 333 331 330 331 333 335 335 335 335 335 334 335 335 333 333 332 332 332 333 333 332 331 331 332 332 333 334 336 337 337 336 335 334 334 333 333 333 332 332 331 331 331 330 330 329 329 329 328 328 328 328 328 327 327 326 326 326 326 326 326 326 325
1 356 352 350 352 354 355 351 349 352 356 358 356 355 354 352 348 342 337 336 337 337 336 334 332 331 331 332 333 335 336 335 335 334 334 334 335 335 334 333 333 333 333 332 330 329 329 329 330 331 332 333 334 334 333 333 333 332 332 332 332 332 332 331 331 330 330 330 329 329 329 328 328 328 327 327 327 326 326 326 326 325 326 326 326 326
5 356 350 354 358 0 358 355 353 356 0 1 358 353 347 345 343 340 335 334 334 335 334 332 331 331 333 335 337 337 337 335 334 333 333 334 334 334 332 331 331 332 332 331 330 329 328 328 328 328 329 330 330 331 331 331 331 331 331 331 331 331 331 330 330 330 329 329 329 328 328 328 328 328 327 327 327 326 326 326 326 325 326 326 326 326
6 359 357 1 5 6 3 359 357 358 359 358 354 348 342 339 338 338 335 334 334 334 333 331 330 331 334 338 341 341 339 336 334 333 333 332 332 331 330 329 328 328 329 328 327 326 326 327 326 326 327 327 328 329 330 330 330 330 330 330 330 330 330 330 330 330 329 329 328 328 328 328 328 327 327 327 327 327 326 326 326 326 326 326 326 326
8 4 4 6 8 8 5 1 358 355 354 350 345 340 338 338 338 338 337 335 334 334 334 333 332 332 335 339 343 344 342 339 336 333 331 330 330 330 329 326 326 326 327 326 325 324 324 325 324 323 323 325 326 327 328 328 329 329 329 330 330 330 330 330 330 330 329 329 328 328 328 328 328 327 327 327 327 327 327 327 327 326 327 327 327 327
14 11 10 7 9 8 5 359 354 349 347 344 341 339 338 340 341 339 338 335 334 335 337 336 335 335 335 338 343 346 345 341 336 332 329 327 327 328 329 326 324 324 325 325 323 322 323 323 322 320 320 321 323 326 327 327 327 328 329 329 330 330 330 330 330 329 329 329 329 328 328 328 328 328 327 327 327 327 327 327 327 327 327 327 327 327
26 21 15 10 7 6 1 355 350 346 344 341 340 340 340 340 340 338 337 336 336 337 338 337 336 334 333 335 340 344 345 341 336 331 327 325 324 326 328 326 323 323 323 322 322 321 322 321 319 318 318 319 322 325 325 325 326 327 328 329 329 330 330 330 329 329 329 329 329 328 328 328 328 328 328 328 328 328 328 328 328 328 327 327 327 327
36 30 23 14 7 0 353 348 346 346 344 341 340 340 339 340 339 338 337 337 337 336 335 335 333 331 329 329 333 337 341 339 334 329 326 324 323 324 327 326 323 321 321 321 320 321 320 318 316 315 315 318 321 323 323 324 326 327 328 329 329 329 329 329 329 329 329 329 329 329 329 329 329 329 328 328 328 328 328 328 329 328 328 327 327 327
40 34 28 18 5 353 345 343 347 349 345 341 340 340 340 341 341 340 340 339 337 335 332 330 328 325 323 322 324 330 335 335 333 329 325 323 322 324 327 327 325 322 320 319 319 320 319 317 314 314 315 317 318 320 321 323 325 326 328 328 329 329 329 329 329 329 329 329 329 329 329 329 329 329 329 329 329 328 328 329 329 329 328 328 327 327
44 37 28 11 348 335 332 339 348 350 346 342 341 342 342 342 342 341 340 339 337 333 330 327 324 321 319 317 319 323 329 332 332 329 325 322 321 323 328 329 326 322 320 319 320 320 319 317 314 313 315 316 317 318 320 323 325 327 327 328 328 328 328 328 328 328 328 329 329 330 330 330 330 330 330 329 329 329 329 329 329 328 328 328 327 327
50 38 22 357 328 315 317 335 347 350 350 347 346 347 346 344 342 340 339 337 334 332 330 325 321 317 315 313 313 316 322 328 331 329 324 321 321 324 329 329 326 322 320 319 320 321 320 317 314 312 312 313 314 317 320 323 326 328 328 328 328 328 328 328 328 328 329 329 330 330 330 330 330 330 330 329 329 329 329 329 329 328 328 328 327 327
56 35 8 343 328 323 331 348 3 4 359 356 355 354 349 343 339 335 333 332 331 328 324 319 314 310 308 306 307 311 316 322 328 328 323 321 321 323 328 328 326 322 319 320 321 321 319 316 313 311 310 311 312 315 319 324 328 329 328 328 328 328 328 328 328 328 328 329 329 330 330 329 329 329 329 329 329 329 329 329 329 328 328 328 327 326
58 32 5 351 353 2 17 32 34 21 7 2 359 354 347 339 331 325 323 323 321 319 315 311 308 307 307 308 311 315 319 322 327 329 325 320 318 321 325 327 326 323 320 320 321 321 319 316 313 310 309 310 311 314 318 324 328 330 329 329 329 329 329 329 329 328 328 328 328 329 329 329 329 328 328 328 328 329 329 329 328 328 328 328 327 326
47 35 26 20 24 32 42 48 43 28 15 5 358 351 343 336 326 318 315 316 316 316 314 313 313 315 318 322 325 326 326 325 329 331 328 321 318 319 322 325 325 322 320 320 321 320 318 315 313 310 308 308 309 313 318 324 327 329 329 329 330 330 331 330 330 330 329 329 328 328 327 327 327 327 328 328 328 328 329 328 328 328 328 327 327 326
49 43 40 39 39 42 45 45 40 32 22 10 0 353 348 342 334 324 320 322 323 323 322 321 323 325 327 329 330 329 328 327 330 333 330 323 318 317 321 325 325 323 320 320 321 320 317 314 312 310 308 306 308 312 318 323 326 327 327 328 329 330 330 330 330 330 330 329 328 327 326 326 326 326 326 326 327 327 328 328 328 328 328 327 326 324
64 62 60 54 49 47 47 44 40 33 23 16 9 5 0 354 345 336 336 337 336 334 331 329 328 329 330 330 330 329 327 326 330 335 334 325 319 317 320 325 326 323 321 321 321 320 317 313 310 309 308 307 309 313 319 322 323 324 325 326 328 329 329 329 329 329 329 329 328 326 325 324 324 325 325 325 326 327 327 328 328 328 328 327 325 324
69 65 62 58 52 46 42 38 33 27 22 17 15 14 12 5 356 350 350 346 341 337 334 332 330 330 330 331 329 326 325 326 334 340 337 327 319 316 320 325 327 325 322 321 321 319 316 311 308 308 309 310 313 316 319 320 320 321 322 324 325 327 328 328 328 328 328 327 326 325 324 324 323 324 324 324 325 326 327 328 328 328 328 327 325 323
65 62 58 55 46 36 28 24 24 22 18 15 14 14 15 11 5 356 349 343 339 337 335 332 330 329 328 327 324 322 321 328 343 348 340 330 320 316 321 325 328 328 325 322 321 320 317 312 308 309 311 315 317 318 319 319 320 320 320 321 323 325 325 326 327 327 327 326 325 324 323 323 324 324 324 324 324 325 326 328 329 329 329 328 325 323
55 50 44 38 29 17 10 10 11 12 11 10 10 11 13 13 7 355 343 339 336 334 332 330 328 326 324 322 320 320 322 336 350 350 344 334 323 317 321 326 330 331 330 327 325 323 321 317 314 315 316 318 319 320 320 320 320 320 320 320 321 323 324 325 326 326 326 325 324 323 323 323 323 324 324 324 325 325 326 328 329 329 329 327 325 322
40 32 25 19 11 7 4 3 2 3 4 5 5 7 8 8 3 352 342 339 336 331 326 325 324 323 322 322 322 323 327 341 350 350 346 337 326 320 324 326 329 333 335 333 331 327 323 320 320 320 320 320 320 320 320 320 320 319 319 320 321 322 323 325 325 325 325 324 323 322 322 322 323 324 324 325 325 325 326 328 329 329 328 326 324 321
30 23 20 14 7 3 359 357 357 357 357 358 359 359 359 359 355 349 343 340 334 327 321 318 317 318 320 322 322 321 321 329 339 347 346 338 325 319 323 325 326 330 335 336 335 326 320 319 319 320 322 321 319 318 318 318 318 318 318 319 320 321 322 324 324 324 323 322 322 321 321 321 322 323 324 325 326 326 327 328 329 329 328 325 323 321
23 14 8 3 0 358 356 353 352 351 350 350 349 349 349 348 347 344 341 337 331 325 318 314 312 311 312 311 307 302 305 314 327 339 343 335 323 318 322 322 323 324 327 328 321 310 308 310 313 316 318 319 318 317 317 316 316 317 318 319 319 320 321 323 323 323 322 321 320 320 321 321 322 323 324 325 326 326 327 328 328 328 327 324 322 320
23 13 4 358 354 351 350 348 347 345 343 342 341 339 340 340 339 338 336 333 329 324 318 313 310 308 307 302 299 296 299 306 320 332 338 333 324 318 320 321 320 321 321 320 313 303 295 297 305 310 313 314 315 315 315 315 316 317 319 320 319 319 321 322 322 322 321 320 320 320 321 322 322 323 324 325 326 326 327 327 327 327 326 323 322 320
22 14 6 1 356 352 349 346 343 340 338 336 335 334 334 335 335 334 332 329 326 322 316 311 307 306 306 304 300 297 298 305 318 330 334 331 323 317 317 318 319 320 321 319 315 309 301 299 303 307 310 311 311 312 313 315 317 318 319 319 318 318 320 321 322 321 320 320 320 320 321 322 323 323 324 325 326 326 326 326 326 325 325 323 321 320
19 14 9 4 359 354 349 344 340 336 334 333 332 332 332 333 333 331 329 326 324 320 315 309 304 300 299 300 299 299 300 306 315 325 329 327 322 317 316 316 318 319 319 317 315 313 308 305 305 306 308 310 310 310 312 316 318 319 318 318 317 317 318 319 320 319 319 320 320 320 321 322 323 323 324 324 325 325 325 324 324 324 323 322 321 319
19 14 10 5 359 353 346 341 337 334 332 331 331 331 331 331 331 330 329 327 324 320 316 311 306 300 294 291 290 292 296 302 311 319 323 322 319 317 314 312 314 316 315 313 312 311 309 307 306 307 307 308 309 311 314 317 319 319 318 318 318 318 317 318 318 319 319 319 319 320 321 322 322 322 322 323 323 323 323 323 324 324 323 322 321 318
18 13 7 1 355 348 342 338 335 333 331 329 328 329 330 330 330 330 329 328 326 323 320 315 311 306 301 295 290 289 293 300 308 315 318 317 316 315 310 308 310 312 311 308 308 308 307 307 308 308 308 307 308 311 314 318 319 319 318 318 318 318 317 318 319 319 319 319 319 319 320 321 322 322 322 322 322 323 323 323 324 324 323 322 320 318
16 9 2 355 348 344 339 336 334 331 328 325 324 325 326 326 327 328 329 328 328 326 322 318 314 311 310 308 304 302 303 304 309 313 316 316 317 316 311 307 307 308 307 303 302 303 304 305 307 309 309 309 308 309 311 315 317 317 316 317 316 316 316 318 320 320 320 319 319 320 321 322 322 322 322 323 323 324 324 323 323 324 323 322 321 318
12 2 354 348 344 340 336 333 330 327 325 324 323 323 323 323 326 328 330 329 327 325 322 320 316 314 314 315 314 312 309 308 312 317 319 322 325 324 318 312 309 308 307 303 300 298 297 298 299 302 305 307 308 309 311 313 314 314 315 317 317 317 318 321 322 321 320 320 321 321 322 322 322 322 322 323 323 323 322 321 321 322 322 322 321 319
5 356 348 343 339 335 331 327 325 325 325 325 324 323 322 325 328 331 333 332 330 328 327 326 324 322 320 317 312 307 304 308 313 319 323 325 328 328 323 318 313 311 310 307 303 298 295 294 294 295 297 300 303 306 308 310 311 312 315 317 318 318 320 321 322 322 322 322 322 322 322 322 322 322 322 322 321 320 319 318 318 318 319 319 319 319
359 350 344 338 334 330 325 324 324 325 325 323 323 324 328 331 333 334 336 336 335 335 335 335 334 332 330 325 317 310 307 310 314 318 321 323 324 324 321 319 317 315 312 308 304 300 296 293 293 294 295 296 299 301 303 305 307 311 314 314 314 315 317 319 321 323 323 323 323 322 322 322 322 321 321 320 319 318 316 314 313 314 316 315 315 316
355 346 340 335 330 326 326 326 326 325 324 324 326 329 333 336 337 337 337 337 338 339 339 339 338 336 333 332 329 324 319 317 317 319 321 323 323 322 320 319 318 316 313 310 306 302 298 295 293 293 294 296 299 301 303 304 307 310 312 312 314 316 318 319 322 325 325 324 323 323 322 322 322 321 320 319 317 315 314 313 312 312 313 313 313 312
350 343 336 331 327 326 327 327 327 328 329 330 331 334 337 339 340 340 339 338 338 339 340 340 339 336 333 333 334 332 330 326 325 324 324 325 325 323 320 317 316 314 313 310 308 305 303 300 296 294 295 297 299 299 300 304 307 310 311 314 317 320 321 321 322 324 324 323 323 323 323 322 320 319 318 316 315 314 314 314 314 314 313 311 311 310
345 338 334 329 329 329 330 330 331 331 332 333 335 336 339 341 342 342 341 340 339 340 341 341 340 338 336 336 335 334 333 332 331 330 329 328 327 326 322 320 318 316 315 311 308 307 307 305 301 298 297 299 298 298 298 301 305 309 312 316 319 319 317 317 319 322 322 322 322 322 322 321 320 318 317 315 315 315 315 315 315 314 313 312 311 308
345 339 335 332 331 332 333 334 334 334 334 335 336 338 341 343 344 344 344 342 341 341 342 342 342 341 341 340 338 336 334 334 334 334 333 333 332 331 328 325 323 321 317 312 307 305 304 303 301 301 301 299 297 295 296 299 304 309 313 317 319 318 315 316 318 320 321 321 321 321 321 321 320 319 317 316 316 317 316 316 315 314 314 313 311 309
348 342 338 336 335 335 336 336 336 336 337 337 339 341 342 344 345 345 345 344 342 342 342 344 344 343 340 339 338 337 336 336 335 336 336 336 335 335 334 331 327 323 319 314 309 303 299 296 296 297 299 299 297 294 294 299 306 312 315 318 319 318 318 318 319 320 321 321 320 320 321 321 321 319 317 317 316 316 316 315 314 314 313 312 311 310
350 344 341 338 337 337 338 339 339 339 340 340 341 342 344 346 346 347 346 346 344 343 342 344 345 343 340 339 339 338 337 335 334 334 335 336 337 337 336 334 331 327 322 316 311 306 301 296 293 291 291 293 294 295 298 303 310 313 316 317 318 319 318 318 319 320 320 320 319 320 321 323 322 320 318 317 316 316 316 315 315 314 313 312 312 311
349 344 342 339 339 339 341 342 342 342 342 342 342 343 345 347 348 348 347 347 346 345 344 345 344 342 340 340 340 338 336 334 332 332 333 335 335 336 335 335 333 331 327 321 315 309 303 298 294 288 283 280 283 291 299 306 311 314 315 317 318 318 317 317 318 319 320 319 318 319 321 322 321 319 318 317 316 316 316 315 315 314 313 313 313 313
346 343 341 340 340 341 342 343 344 344 343 342 342 343 345 347 349 349 348 347 347 346 346 344 342 340 339 339 338 338 336 334 333 333 333 335 336 336 336 336 335 333 331 327 323 318 310 305 298 289 279 272 276 287 299 307 312 314 315 316 317 317 317 317 318 318 319 318 318 319 319 320 318 317 317 316 315 314 314 314 314 314 315 315 314 313
345 343 341 341 341 341 342 343 344 344 344 343 343 343 344 346 349 350 351 350 349 347 346 343 341 339 338 337 337 337 336 335 333 333 334 335 336 337 337 337 338 337 336 335 334 333 329 326 320 309 291 274 277 291 303 310 313 315 315 316 317 318 317 317 317 318 318 318 318 318 318 318 317 317 317 315 314 313 313 313 314 314 315 316 315 313
344 343 341 341 341 341 341 342 343 344 344 343 343 343 344 347 349 350 351 351 350 348 345 343 341 339 337 336 336 336 336 334 333 333 333 334 335 337 337 339 340 341 340 339 339 339 339 339 338 335 331 317 308 310 313 314 315 316 316 317 319 319 318 316 316 316 317 318 318 318 318 318 318 318 317 316 314 313 313 313 314 314 315 316 315 314